Погода Винницы

Погода Винницы : погода сейчас, прогноз погоды и архив. Всё, что Вы хотите узнать о погоде Винницы!

Поиск расширенной информации на нашем сайте:

Другие новости

Новости СМИ2

Главная страница сайта

Новости сайта

03.07.2017

Напоминаем, что на нашем специализированном сайте Метеоцентр.Азия вы можете получить высокодетализированные автоматические прогнозы погоды по пунктам России, СНГ и мира в авиационном формате (включающие направление и скорость ветра, видимость, явления погоды, количество и форму облачности, нижнюю и верхнюю границу облачности).


Погода Винницы - сегодня

Время (UTC), дата Ветер
(°,м/с) 
Видим.   Явления Облачность Т
(°С)
Тd
(°С)
f(%) Тe
(°С)
Pmin
(гПа)
dP
(гПа)
Po
(мм)
O2
(г/м3)
Тmin Tmax R s Состояние
почвы
00 16.06.18 260 (З) 50000 м    8/3 600 м кучево-дожд., средняя 
[Cb cap|Ac und]
+10.6 +9.9 95 +13  1018.8  0.9  754  291           
09 16.06.18 270 (З) 20000 м    9/4 600 м средняя, верхняя 
[Cu Sc|Ac und|Ci fib]
+22.2 +8.4 41 +22  1019.9  0.6  755  280           
12 16.06.18 220 (ЮЗ) 20000 м    6/3 600 м средняя, верхняя 
[Cu Sc|Ac trans|Ci fib]
+25.3 +6.8 31 +25  1019.1  -0.7  755  277           
15 16.06.18 150 (ЮВ) 20000 м    8/5 600 м кучево-дожд., средняя, верхняя 
[Cb cap|Ac trans|Ci fib]
+23.2 +11 46 +26  1018.4  -0.7  754  278           
21 16.06.18 110 (В) 50000 м    8/0 средняя 
[Ac und]
+12 +11.2 95 +16  1019.6  0.7  755  289           
00 17.06.18 070 (В) 50000 м    8/0 средняя 
[Ac und]
+9.8 +9.2 96 +11  1020.3  0.5  755  292           
09 17.06.18 220 (ЮЗ) 20000 м    8/5 1000 м средняя 
[Cu Sc|Ac und]
+25.2 +5.8 29 +25  1019.1  -0.2  755  277           
12 17.06.18 260 (З) 20000 м    8/4 1000 м верхняя 
[Sc|Ci fib]
+25.6 +6.1 29 +26  1018.3  -0.7  754  277           
15 17.06.18 240 (ЮЗ) 20000 м    6/3 1000 м средняя, верхняя 
[Sc|Ac trans|Ci fib]
+25.1 +6.9 31 +25  1017.5  -0.8  754  277           
21 17.06.18 тихо ()   50000 м    9/0 средняя, верхняя 
[Ac und|Ci fib]
+14 +12.3 89 +18  1018.2  0.3  754  286           
00 18.06.18 тихо ()   50000 м    8/4 1000 м средняя, верхняя 
[Sc|Ac und|Ci fib]
+11.9 +11 94 +14  1017.9  -0.4  753  289           
09 18.06.18 190 (Ю) 20000 м    8/5 600 м кучево-дожд., средняя, верхняя 
[Cb cap|Ac und|Ci fib]
+23.7 +12.3 49 +28  1014.9  -0.6  752  276           
21 18.06.18 тихо ()   21000 м  туман поземный  5/0 средняя 
[Ac trans]
+13.7 +13.2 97 +19  1011.5  -0.6  749  285           
03 19.06.18 230 (ЮЗ) 28000 м  слаб. ливневой дождь  9/9 750 м кучево-дожд. 
[Cb cap]
+14.8 +14.2 96 +23  1010.4  0.2  748  283  +13.4       
09 19.06.18 250 (З) 20000 м    8/8 840 м кучево-дожд. 
[Cb cap]
+17 +11.6 70 +20  1008  -1.4  746  281           
15 19.06.18 220 (ЮЗ) 20000 м    9/5 600 м кучево-дожд., средняя 
[Cb cap|Ac und]
+18.3 +9.7 57 +20  1003.7  -2.3  743  279           
06 20.06.18 240 (ЮЗ) 7-10{12}  20000 м  {ливн. осадки}  8/8 800 м кучево-дожд. 
[Cb cap]
+14 +8.8 71 +13  999.1  -0.7  740  282  +10.1      мокрая 
21 20.06.18 250 (З) 50000 м    ясно 
+12.4 +6.3 66 +12  1003.7  743  285           
00 21.06.18 250 (З) 50000 м    9/0 средняя 
[Ac und]
+10.3 +6.5 77 +10  1004.2  0.4  743  287           
03 21.06.18 260 (З) 20000 м    ясно 
+11.9 +8.2 78 +12  1004.8  0.6  744  286  +10.1         
09 21.06.18 240 (ЮЗ) 20000 м    8/5 1000 м средняя 
[Cu Sc|Ac und]
+19.7 +5.8 40 +20  1005.6  0.5  745  279           
12 21.06.18 260 (З) 20000 м    8/5 1000 м средняя 
[Cu Sc|Ac und]
+20.4 +3.3 32 +20  1006.2  0.5  745  279           
15 21.06.18 240 (ЮЗ) 20000 м    8/3 1000 м средняя 
[Sc|Ac und]
+19.9 +6.4 41 +21  1006.5  745  279           
21 21.06.18 180 (Ю) 50000 м    9/5 1000 м средняя, верхняя 
[Sc|Ac und|Ci fib]
+14.4 +10.9 79 +17  1006.6  0.1  745  283           
00 22.06.18 120 (ЮВ) 50000 м    9/5 600 м кучево-дожд., средняя, верхняя 
[Cb cap|Ac und|Ci fib]
+13.9 +11.6 86 +19  1005.2  -1.3  744  283           
Время (UTC), дата Ветер
(°,м/с) 
Видим.   Явления Облачность Т
(°С)
Тd
(°С)
f(%) Тe
(°С)
Pmin
(гПа)
dP
(гПа)
Po
(мм)
O2
(г/м3)
Тmin Tmax R s Состояние
почвы

Для получения пояснительной информации подведите курсор к названию столбца.

ПОГОДА Винницы - архив

Всё, что Вы хотите узнать о погоде Винницы - удобно и подробно!

Выберите нужную дату (начиная с 1 января 2015* года) и нажмите кнопку "Найти".
Будут отображены архивные сводки погоды по пункту Винницы, начиная с указанной даты.


Отображать данные в формате CSV (для использования в таблицах Excel)


Внимание! Наш архив погоды предназначен исключительно для личного некоммерческого использования в познавательных целях. Если Вам необходимы официальные справки о состоянии погоды (для производственных, юридических, коммерческих и т.п. целей), обращайтесь в органы Росгидромета.

*Примечание: данная дата относится к архиву по метеостанциям СССР (Россия, СНГ, Балтия).
Архив по метеостанциям Зарубежной Европы и Азии (кроме Китая) хранится 10 дней, по другим регионам земного шара (Китай, Африка, Америка, Австралия, Океания) - 1 день.

Винницы - район местоположения метеостанции


Название, широта, долгота, высота метеостанции:
Винницы 60.6°ш. 34.8°д. 111 м над ур. моря [Российская Федерация]

Дополнительная информация

В oтличие oт бoльшинства пoгoдных сайтoв мы публикуем пoдрoбную метеoинфoрмацию в детальнoм прoфессиoнальнoм фoрмате.

Характеристики температуры и влажнoсти вoздуха измеряются на высoте 2 м в тени вдали oт зданий и деревьев.
Скoрoсть ветра измеряется на высoте 10 м (на урoвне рoста челoвека скoрoсть ветра ниже в 1.5-2 раза). Если метеoстанция нахoдится в гoрoде или в лесу, тo скoрoсть ветра занижена на 2-4 м/с пo сравнению с oткрытым местoм. Скoрoсть ветра над акватoриями крупных рек и oзёр, а также на вершинах хoлмoв на 2-5 м/с выше, чем в oбычных услoвиях.
Атмoсфернoе давление в разных тoчках местнoсти мoжет значительнo oтличаться oт давления на метеoстанции, в зависимoсти oт услoвий рельефа (при пoдъёме на 10 м давление пoнижается примернo на 1 мм рт.ст.).